[[{"header":{"parameterUnit":"m.s-1","parameterCategory":2,"la1":30.2992,"la2":30.254,"lo1":-89.0895,"lo2":-89.0443,"dy":0.0025,"dx":0.0025,"nx":19,"ny":19,"refTime":"2026-03-23T21:00:00:Z","depth":"0","parameterNumber":2,"parameterNumberName":"U-component_of_CURRENTS"},"data":[0,0,0,-0.2672,-0.2675,-0.2775,-0.2775,-0.283,-0.2831,0,0,0,0,0,0,0,0,0,0,0,-0.2621,-0.2622,-0.2672,-0.2675,-0.2775,-0.2775,-0.283,-0.2831,0,0,0,0,0,0,0,0,0,0,0,-0.2621,-0.2622,-0.2622,-0.2676,-0.2775,-0.2775,-0.283,-0.2769,0,0,0,0,0,0,0,0,0,0,-0.2679,-0.2639,-0.2621,-0.2623,-0.2676,-0.2775,-0.2775,-0.2766,-0.2773,-0.2769,0,-0.2788,0,-0.2824,-0.2834,-0.2834,0,0,0,-0.2659,-0.2634,-0.2676,-0.2623,-0.2677,-0.2775,-0.2726,-0.277,-0.2777,-0.2776,-0.2789,-0.2792,-0.2825,-0.2834,-0.2835,-0.2924,-0.2925,0,0,-0.2654,-0.2623,-0.2672,-0.2681,-0.2707,-0.2722,-0.2729,-0.2775,-0.2773,-0.2789,-0.2794,-0.2826,-0.2835,-0.2835,-0.2924,-0.2924,0,0,0,-0.2649,-0.2619,-0.2661,-0.2677,-0.2709,-0.2726,-0.2733,-0.277,-0.2789,-0.2795,-0.2826,-0.2835,-0.2836,-0.2923,-0.2924,-0.2965,0,0,0,-0.2644,-0.2618,-0.2659,-0.2639,-0.2709,-0.275,-0.2727,-0.2785,-0.2793,-0.2826,-0.2835,-0.2836,-0.2922,-0.2924,-0.2963,-0.2971,0,0,0,-0.2616,-0.2615,-0.2631,-0.2638,-0.2692,-0.2751,-0.2771,-0.2787,-0.2812,-0.2834,-0.2836,-0.2922,-0.2923,-0.296,-0.2967,-0.2974,0,0,0,-0.2575,-0.2624,-0.263,-0.2702,-0.2692,-0.2805,-0.2771,-0.2833,-0.2858,-0.2835,-0.2922,-0.2924,-0.296,-0.2965,-0.2972,-0.2871,-0.2871,0,0,-0.2623,-0.2629,-0.2678,-0.2688,-0.2793,-0.2789,-0.2884,-0.2888,-0.2875,-0.2897,-0.29,-0.2964,-0.2967,-0.2974,-0.2953,-0.2951,0,0,0,-0.2687,-0.2708,-0.2748,-0.2804,-0.2879,-0.2918,-0.2941,-0.2948,-0.2962,-0.2901,-0.2981,-0.2982,-0.2984,-0.2921,-0.2919,-0.2843,-0.293,-0.293,-0.293,-0.2664,-0.2731,-0.2799,-0.2875,-0.2942,-0.3007,-0.3037,-0.3043,-0.3028,-0.3038,-0.3029,-0.308,-0.3015,-0.3012,-0.2936,-0.305,-0.305,-0.305,-0.305,-0.2698,-0.272,-0.2806,-0.289,-0.2955,-0.3022,-0.3102,-0.3098,-0.3124,-0.3098,-0.3098,-0.2984,-0.3012,-0.2932,-0.3053,-0.3053,-0.3052,-0.3052,-0.3052,-0.2636,-0.2652,-0.2718,-0.2814,-0.2902,-0.2999,-0.3063,-0.3116,-0.314,-0.3157,-0.3058,-0.3055,-0.297,-0.3145,-0.3145,-0.3145,-0.3145,-0.3145,-0.3145,-0.2515,-0.2589,-0.2614,-0.2734,-0.2782,-0.2879,-0.3025,-0.3067,-0.3091,-0.309,-0.3088,-0.2976,-0.3108,-0.3087,-0.3147,-0.3147,-0.3146,-0.3146,-0.3146,-0.2402,-0.2434,-0.2467,-0.251,-0.2637,-0.2659,-0.286,-0.2935,-0.3007,-0.299,-0.2912,-0.305,-0.3019,-0.3018,-0.2995,-0.3027,-0.3027,-0.3027,-0.3027,-0.2282,-0.2318,-0.2311,-0.2348,-0.2423,-0.2546,-0.2539,-0.2648,-0.2744,-0.2734,-0.2824,-0.2775,-0.2783,-0.2736,-0.2742,-0.2713,-0.2673,-0.2673,-0.2672,-0.2175,-0.2205,-0.2142,-0.2216,-0.2303,-0.2373,-0.2291,-0.2344,-0.2521,-0.2655,-0.2744,-0.2758,-0.2686,-0.2705,-0.2631,-0.2645,-0.2597,0,0]},{"header":{"parameterUnit":"m.s-1","parameterCategory":2,"la1":30.2992,"la2":30.254,"lo1":-89.0895,"lo2":-89.0443,"dy":0.0025,"dx":0.0025,"nx":19,"ny":19,"refTime":"2026-03-23T21:00:00:Z","depth":"0","parameterNumber":3,"parameterNumberName":"V-component_of_CURRENTS"},"data":[0,0,0,-0.0205,-0.0204,-0.011,-0.0109,0.0079,0.008,0,0,0,0,0,0,0,0,0,0,0,-0.0237,-0.0237,-0.0205,-0.0204,-0.011,-0.0109,0.0078,0.008,0,0,0,0,0,0,0,0,0,0,0,-0.0237,-0.0237,-0.0236,-0.0203,-0.011,-0.0109,0.0078,-0.0004,0,0,0,0,0,0,0,0,0,0,-0.0102,-0.0154,-0.0237,-0.0236,-0.0203,-0.011,-0.0109,-0.0009,0.0001,0.0049,0,0.0048,0,0.0061,0.0092,0.0093,0,0,0,-0.0182,-0.0162,-0.0136,-0.0236,-0.0203,-0.0111,-0.0146,-0.0004,0.0007,0.0062,0.0051,0.0057,0.0064,0.0094,0.0094,0.0205,0.0205,0,0,-0.0187,-0.0213,-0.0144,-0.013,-0.0196,-0.0149,-0.0144,0.0002,0.0007,0.0051,0.0062,0.0067,0.0095,0.0096,0.0205,0.0205,0,0,0,-0.0217,-0.0216,-0.0195,-0.0137,-0.013,-0.0147,-0.014,0.0001,0.0008,0.0064,0.0069,0.0096,0.0098,0.0205,0.0205,0.0093,0,0,0,-0.0219,-0.0235,-0.0197,-0.021,-0.0134,-0.0074,-0.0145,-0.0002,0.0014,0.0068,0.0096,0.01,0.0205,0.0205,0.0096,0.003,0,0,0,-0.0238,-0.0237,-0.0232,-0.0212,-0.0182,-0.0077,-0.0061,0.0002,0.0018,0.0093,0.01,0.0205,0.0205,0.0099,0.0037,0.0053,0,0,0,-0.0258,-0.0296,-0.0233,-0.027,-0.0183,-0.0157,-0.0061,-0.0021,0.0033,0.0097,0.0205,0.0205,0.01,0.004,0.0056,0.0112,0.0103,0,0,-0.0327,-0.0305,-0.0329,-0.0271,-0.0288,-0.0167,-0.0155,-0.0042,0.005,0.0167,0.0169,0.0095,0.0037,0.0054,0.0091,0.0083,0,0,0,-0.0365,-0.0387,-0.0378,-0.037,-0.0313,-0.025,-0.0135,-0.0065,0.004,0.0077,0.012,0.0087,0.0101,0.0142,0.0135,0.0409,0.0203,0.0203,0.0203,-0.0492,-0.0465,-0.0505,-0.0461,-0.0425,-0.0299,-0.0235,-0.0112,-0.0017,0.0015,0.0014,-0.0029,0.0012,0.0008,0.0289,0.0046,0.0045,0.0045,0.0045,-0.0623,-0.0654,-0.06,-0.063,-0.0533,-0.0493,-0.032,-0.0235,-0.0118,-0.0053,-0.0032,0.0043,-0.0005,0.0298,0.0038,0.0039,0.004,0.0041,0.0041,-0.0721,-0.0733,-0.0737,-0.0757,-0.0725,-0.0607,-0.0551,-0.0401,-0.0235,-0.0217,-0.0097,-0.0093,0.0161,-0.0184,-0.0184,-0.0185,-0.0185,-0.0185,-0.0185,-0.0819,-0.0822,-0.0884,-0.0885,-0.0894,-0.0852,-0.0677,-0.0577,-0.036,-0.0216,-0.0213,0.019,-0.0097,-0.0102,-0.0189,-0.0188,-0.0188,-0.0187,-0.0187,-0.0944,-0.0933,-0.1038,-0.1072,-0.1091,-0.108,-0.0911,-0.0644,-0.0489,-0.0368,0.0166,-0.0175,-0.0122,-0.0114,-0.0116,-0.0202,-0.0202,-0.0202,-0.0202,-0.1019,-0.1026,-0.116,-0.1235,-0.1273,-0.1185,-0.1056,-0.0719,-0.0128,0.0207,0.0315,0.0411,0.0399,0.049,0.0484,0.0498,0.057,0.0572,0.0573,-0.1092,-0.1127,-0.1235,-0.1303,-0.1351,-0.1287,-0.1138,-0.0703,0.0202,0.0633,0.0686,0.0653,0.0822,0.0782,0.0947,0.0917,0.0946,0,0]}],[{"header":{"parameterUnit":"m.s-1","parameterCategory":2,"la1":30.2992,"la2":30.254,"lo1":-89.0895,"lo2":-89.0443,"dy":0.0025,"dx":0.0025,"nx":19,"ny":19,"refTime":"2026-03-23T21:00:00:Z","depth":"2","parameterNumber":2,"parameterNumberName":"U-component_of_CURRENTS"},"data":[0,0,0,-0.2446,-0.2449,-0.2553,-0.2553,-0.2615,-0.2616,0,0,0,0,0,0,0,0,0,0,0,-0.2396,-0.2396,-0.2446,-0.2449,-0.2553,-0.2553,-0.2615,-0.2616,0,0,0,0,0,0,0,0,0,0,0,-0.2395,-0.2396,-0.2397,-0.245,-0.2553,-0.2553,-0.2615,-0.2551,0,0,0,0,0,0,0,0,0,0,-0.2458,-0.2419,-0.2396,-0.2397,-0.245,-0.2553,-0.2553,-0.2549,-0.2555,-0.2552,0,-0.2571,0,-0.2606,-0.2619,-0.262,0,0,0,-0.2436,-0.2414,-0.2454,-0.2397,-0.2451,-0.2552,-0.2502,-0.2553,-0.256,-0.256,-0.2572,-0.2576,-0.2607,-0.262,-0.262,-0.2715,-0.2715,0,0,-0.243,-0.2402,-0.2449,-0.2459,-0.2481,-0.2499,-0.2506,-0.2558,-0.2557,-0.2573,-0.2578,-0.2608,-0.262,-0.2621,-0.2714,-0.2715,0,0,0,-0.2423,-0.2397,-0.2437,-0.2455,-0.2486,-0.2502,-0.251,-0.2554,-0.2572,-0.2579,-0.2609,-0.262,-0.2621,-0.2714,-0.2714,-0.2757,0,0,0,-0.2419,-0.2395,-0.2435,-0.2417,-0.2486,-0.2531,-0.2505,-0.2567,-0.2575,-0.2609,-0.262,-0.2622,-0.2713,-0.2714,-0.2754,-0.2763,0,0,0,-0.239,-0.2392,-0.2407,-0.2415,-0.247,-0.2531,-0.2551,-0.257,-0.2594,-0.262,-0.2622,-0.2712,-0.2714,-0.2752,-0.276,-0.2768,0,0,0,-0.2352,-0.2399,-0.2406,-0.2475,-0.2469,-0.2579,-0.2551,-0.2616,-0.2644,-0.2621,-0.2713,-0.2714,-0.2751,-0.2758,-0.2766,-0.2653,-0.2652,0,0,-0.2397,-0.2403,-0.245,-0.2461,-0.2562,-0.2563,-0.2658,-0.267,-0.2661,-0.2687,-0.269,-0.2755,-0.276,-0.2768,-0.2738,-0.2734,0,0,0,-0.2457,-0.2478,-0.2516,-0.2571,-0.2645,-0.2688,-0.2717,-0.2728,-0.275,-0.2688,-0.2773,-0.2775,-0.2778,-0.2707,-0.2705,-0.2721,-0.2721,-0.2721,-0.2721,-0.2439,-0.2501,-0.2566,-0.264,-0.2707,-0.2776,-0.2811,-0.2823,-0.2813,-0.2829,-0.2823,-0.2877,-0.2803,-0.28,-0.2844,-0.2844,-0.2844,-0.2845,-0.2845,-0.2472,-0.2493,-0.2577,-0.2659,-0.2725,-0.2795,-0.2879,-0.2881,-0.2915,-0.2892,-0.2893,-0.2773,-0.28,-0.2848,-0.2848,-0.2847,-0.2847,-0.2847,-0.2846,-0.2418,-0.2433,-0.2498,-0.2591,-0.2682,-0.278,-0.2846,-0.2906,-0.2935,-0.2954,-0.2849,-0.2846,-0.2879,-0.2945,-0.2945,-0.2945,-0.2945,-0.2945,-0.2946,-0.2307,-0.2379,-0.2405,-0.2521,-0.2569,-0.2668,-0.2817,-0.2859,-0.2884,-0.2882,-0.288,-0.291,-0.2907,-0.2885,-0.2947,-0.2947,-0.2947,-0.2946,-0.2946,-0.2206,-0.2237,-0.2268,-0.2312,-0.2433,-0.245,-0.2651,-0.2722,-0.2795,-0.2774,-0.2835,-0.2837,-0.2805,-0.2805,-0.2781,-0.2812,-0.2812,-0.2812,-0.2812,-0.2095,-0.2129,-0.2123,-0.2157,-0.2227,-0.2339,-0.2308,-0.2364,-0.2504,-0.2512,-0.2524,-0.2466,-0.2479,-0.2425,-0.2434,-0.24,-0.2333,-0.2332,-0.2331,-0.1996,-0.2023,-0.1964,-0.2032,-0.2111,-0.2165,-0.2038,-0.1933,-0.2049,-0.2308,-0.2405,-0.2787,-0.2735,-0.2742,-0.2685,-0.2689,-0.2646,0,0]},{"header":{"parameterUnit":"m.s-1","parameterCategory":2,"la1":30.2992,"la2":30.254,"lo1":-89.0895,"lo2":-89.0443,"dy":0.0025,"dx":0.0025,"nx":19,"ny":19,"refTime":"2026-03-23T21:00:00:Z","depth":"2","parameterNumber":3,"parameterNumberName":"V-component_of_CURRENTS"},"data":[0,0,0,-0.0246,-0.0245,-0.0159,-0.0158,0.002,0.0022,0,0,0,0,0,0,0,0,0,0,0,-0.0275,-0.0275,-0.0246,-0.0245,-0.0159,-0.0158,0.002,0.0022,0,0,0,0,0,0,0,0,0,0,0,-0.0275,-0.0275,-0.0275,-0.0245,-0.0159,-0.0158,0.0019,-0.0058,0,0,0,0,0,0,0,0,0,0,-0.0148,-0.0195,-0.0275,-0.0275,-0.0245,-0.0159,-0.0158,-0.0062,-0.0053,-0.0006,0,-0.0006,0,0.0005,0.0033,0.0034,0,0,0,-0.0225,-0.0203,-0.018,-0.0275,-0.0244,-0.016,-0.0192,-0.0057,-0.0047,0.0006,-0.0004,0.0003,0.0008,0.0034,0.0035,0.0143,0.0143,0,0,-0.023,-0.0252,-0.0187,-0.0174,-0.0237,-0.0195,-0.019,-0.0052,-0.0046,-0.0003,0.0007,0.001,0.0035,0.0037,0.0143,0.0143,0,0,0,-0.0257,-0.0255,-0.0236,-0.0181,-0.0175,-0.0193,-0.0187,-0.0052,-0.0046,0.0008,0.0013,0.0036,0.0039,0.0143,0.0143,0.0038,0,0,0,-0.0259,-0.0273,-0.0239,-0.025,-0.0178,-0.0123,-0.019,-0.0055,-0.004,0.0012,0.0037,0.004,0.0144,0.0143,0.0041,-0.0022,0,0,0,-0.0276,-0.0274,-0.027,-0.0252,-0.0224,-0.0125,-0.0111,-0.0052,-0.0038,0.0034,0.0041,0.0144,0.0143,0.0043,-0.0016,0.0,0,0,0,-0.0293,-0.0331,-0.0271,-0.0306,-0.0225,-0.0203,-0.0112,-0.0074,-0.0024,0.0037,0.0144,0.0143,0.0044,-0.0013,0.0003,0.005,0.0042,0,0,-0.036,-0.0339,-0.0362,-0.0307,-0.0325,-0.0213,-0.0202,-0.0094,-0.0006,0.0107,0.011,0.004,-0.0016,0.0001,0.0034,0.0026,0,0,0,-0.0396,-0.0416,-0.0409,-0.0402,-0.035,-0.0291,-0.0182,-0.0116,-0.0014,0.002,0.0064,0.0032,0.0046,0.0081,0.0075,0.0142,0.0142,0.0142,0.0142,-0.0514,-0.049,-0.0528,-0.0487,-0.0454,-0.0337,-0.0276,-0.0158,-0.0068,-0.0036,-0.0036,-0.0075,-0.0039,-0.0043,-0.0004,-0.0004,-0.0005,-0.0005,-0.0005,-0.0638,-0.0667,-0.0617,-0.0646,-0.0555,-0.0518,-0.0354,-0.0273,-0.016,-0.0097,-0.0077,-0.0011,-0.0056,-0.0013,-0.0012,-0.0011,-0.001,-0.0009,-0.0009,-0.0728,-0.074,-0.0744,-0.0765,-0.0736,-0.0625,-0.0573,-0.043,-0.027,-0.0253,-0.0142,-0.0139,-0.0134,-0.022,-0.0221,-0.0221,-0.0221,-0.0221,-0.0221,-0.0818,-0.0822,-0.0882,-0.0884,-0.0895,-0.0857,-0.0691,-0.0596,-0.0391,-0.0254,-0.0252,-0.0146,-0.0139,-0.0144,-0.0225,-0.0224,-0.0224,-0.0223,-0.0223,-0.0935,-0.0926,-0.1027,-0.106,-0.1082,-0.1072,-0.0913,-0.0663,-0.0515,-0.0402,-0.0219,-0.0218,-0.0168,-0.0161,-0.0164,-0.0245,-0.0245,-0.0245,-0.0245,-0.1005,-0.1012,-0.1142,-0.1216,-0.1254,-0.1171,-0.1049,-0.0745,-0.0422,-0.0245,-0.0245,-0.0203,-0.0202,-0.015,-0.0143,-0.0144,-0.0221,-0.0221,-0.0221,-0.1074,-0.1108,-0.1213,-0.128,-0.1328,-0.1266,-0.1123,-0.0747,-0.03,-0.0224,-0.0275,-0.0237,-0.0173,-0.0172,-0.0085,-0.0077,-0.0076,0,0]}],[{"header":{"parameterUnit":"m.s-1","parameterCategory":2,"la1":30.2992,"la2":30.254,"lo1":-89.0895,"lo2":-89.0443,"dy":0.0025,"dx":0.0025,"nx":19,"ny":19,"refTime":"2026-03-23T21:00:00:Z","depth":"4","parameterNumber":2,"parameterNumberName":"U-component_of_CURRENTS"},"data":[0,0,0,-0.1734,-0.1738,-0.1922,-0.1923,-0.2065,-0.2066,0,0,0,0,0,0,0,0,0,0,0,-0.1668,-0.167,-0.1733,-0.1738,-0.1922,-0.1923,-0.2065,-0.2066,0,0,0,0,0,0,0,0,0,0,0,-0.1668,-0.1669,-0.1671,-0.1739,-0.1922,-0.1923,-0.2065,-0.1949,0,0,0,0,0,0,0,0,0,0,-0.1781,-0.1736,-0.1669,-0.1671,-0.174,-0.1922,-0.1923,-0.1944,-0.1956,-0.1955,0,-0.1991,0,-0.2032,-0.2073,-0.2074,0,0,0,-0.1738,-0.1727,-0.1776,-0.1671,-0.1741,-0.1922,-0.1839,-0.1951,-0.1965,-0.197,-0.1993,-0.2,-0.2034,-0.2074,-0.2075,-0.222,-0.2221,0,0,-0.1727,-0.1701,-0.1767,-0.1784,-0.1798,-0.1833,-0.1845,-0.196,-0.1976,-0.1994,-0.2004,-0.2036,-0.2075,-0.2076,-0.222,-0.2221,0,0,0,-0.1698,-0.1694,-0.1742,-0.1777,-0.1819,-0.1838,-0.1852,-0.1971,-0.1987,-0.2005,-0.2038,-0.2076,-0.2077,-0.2219,-0.222,-0.2264,0,0,0,-0.1692,-0.1678,-0.1737,-0.1724,-0.1817,-0.1911,-0.1859,-0.1979,-0.1994,-0.2037,-0.2076,-0.2078,-0.2218,-0.222,-0.2261,-0.2268,0,0,0,-0.1658,-0.1674,-0.1698,-0.1722,-0.1803,-0.191,-0.1934,-0.1984,-0.2013,-0.2074,-0.2078,-0.2217,-0.2219,-0.2258,-0.2264,-0.2279,0,0,0,-0.1621,-0.1671,-0.1697,-0.1774,-0.1801,-0.1935,-0.1934,-0.2039,-0.2098,-0.2076,-0.2218,-0.222,-0.2257,-0.2262,-0.2277,-0.1987,0,0,0,-0.166,-0.1675,-0.1722,-0.1751,-0.1868,-0.1908,-0.2033,-0.2105,-0.212,-0.2171,-0.2176,-0.2262,-0.2264,-0.2279,-0.2098,0,0,0,0,-0.172,-0.1749,-0.1793,-0.1871,-0.1963,-0.2047,-0.2126,-0.216,-0.2236,-0.2164,-0.2287,-0.2287,-0.2295,-0.212,-0.2229,-0.2229,-0.2228,-0.2228,-0.2228,-0.1708,-0.1775,-0.1854,-0.1945,-0.2033,-0.2154,-0.2222,-0.2279,-0.2291,-0.2334,-0.2342,-0.2408,-0.2229,-0.2369,-0.2369,-0.237,-0.237,-0.237,-0.237,-0.1738,-0.1768,-0.1877,-0.1979,-0.2082,-0.219,-0.2314,-0.2345,-0.2423,-0.2414,-0.2419,-0.2203,-0.2375,-0.2374,-0.2373,-0.2373,-0.2372,-0.2372,-0.2372,-0.1689,-0.1708,-0.1802,-0.1933,-0.2068,-0.2203,-0.229,-0.2391,-0.2451,-0.248,-0.2281,-0.2435,-0.2407,-0.2484,-0.2484,-0.2484,-0.2484,-0.2484,-0.2485,-0.1574,-0.1667,-0.1728,-0.1883,-0.1963,-0.2093,-0.2281,-0.2325,-0.2417,-0.2297,-0.2491,-0.2446,-0.2442,-0.2414,-0.2487,-0.2486,-0.2486,-0.2486,-0.2486,-0.1474,-0.1528,-0.1593,-0.1672,-0.1839,-0.1909,-0.2138,-0.2168,-0.2189,-0.2132,-0.219,-0.2204,-0.2154,-0.2157,-0.2117,-0.2104,-0.2101,-0.2097,0,-0.1372,-0.1414,-0.1465,-0.1533,-0.16,-0.1788,-0.1771,-0.1869,-0.1946,-0.1874,-0.2175,-0.2238,-0.2246,-0.2189,-0.2187,-0.2138,0,0,0,-0.1287,-0.1322,-0.1305,-0.1405,-0.1474,-0.1571,-0.175,-0.1708,-0.1946,-0.1888,-0.2009,-0.2032,-0.2322,-0.2493,-0.245,-0.2445,-0.2398,0,0]},{"header":{"parameterUnit":"m.s-1","parameterCategory":2,"la1":30.2992,"la2":30.254,"lo1":-89.0895,"lo2":-89.0443,"dy":0.0025,"dx":0.0025,"nx":19,"ny":19,"refTime":"2026-03-23T21:00:00:Z","depth":"4","parameterNumber":3,"parameterNumberName":"V-component_of_CURRENTS"},"data":[0,0,0,-0.0256,-0.0256,-0.0208,-0.0208,-0.0069,-0.0068,0,0,0,0,0,0,0,0,0,0,0,-0.0271,-0.0271,-0.0256,-0.0256,-0.0208,-0.0208,-0.0069,-0.0068,0,0,0,0,0,0,0,0,0,0,0,-0.0271,-0.0271,-0.0271,-0.0255,-0.0208,-0.0208,-0.007,-0.0121,0,0,0,0,0,0,0,0,0,0,-0.0175,-0.0209,-0.0271,-0.0271,-0.0255,-0.0208,-0.0208,-0.0124,-0.0118,-0.0073,0,-0.0077,0,-0.0074,-0.0058,-0.0058,0,0,0,-0.024,-0.0214,-0.0202,-0.0271,-0.0255,-0.0208,-0.0225,-0.0121,-0.0114,-0.0064,-0.0076,-0.0071,-0.0072,-0.0057,-0.0057,0.0037,0.0037,0,0,-0.0243,-0.0256,-0.0207,-0.0198,-0.0255,-0.0227,-0.0224,-0.0118,-0.0113,-0.0075,-0.0068,-0.007,-0.0056,-0.0055,0.0037,0.0037,0,0,0,-0.0261,-0.0258,-0.0249,-0.0203,-0.0203,-0.0226,-0.0222,-0.0118,-0.0116,-0.0067,-0.0068,-0.0056,-0.0054,0.0037,0.0037,-0.0051,0,0,0,-0.0261,-0.0269,-0.0251,-0.0257,-0.0207,-0.0172,-0.0225,-0.0123,-0.0111,-0.0069,-0.0056,-0.0052,0.0037,0.0037,-0.0048,-0.0101,0,0,0,-0.0271,-0.027,-0.0269,-0.0258,-0.0245,-0.0174,-0.0165,-0.012,-0.0112,-0.0058,-0.0052,0.0037,0.0037,-0.0046,-0.0096,-0.0081,0,0,0,-0.0279,-0.031,-0.027,-0.0301,-0.0245,-0.0239,-0.0166,-0.0143,-0.0105,-0.0055,0.0037,0.0037,-0.0045,-0.0093,-0.0079,-0.011,0,0,0,-0.0329,-0.0316,-0.0336,-0.03,-0.0322,-0.0244,-0.0242,-0.0158,-0.0086,0.0011,0.0012,-0.0049,-0.0095,-0.0081,-0.0116,0,0,0,0,-0.036,-0.0376,-0.0375,-0.0376,-0.0346,-0.0309,-0.0228,-0.0176,-0.0092,-0.0067,-0.0027,-0.0053,-0.0041,-0.0052,0.0036,0.0036,0.0036,0.0036,0.0036,-0.0442,-0.0431,-0.0465,-0.0443,-0.0426,-0.0346,-0.0303,-0.0209,-0.0135,-0.0107,-0.0108,-0.0137,-0.0152,-0.0079,-0.008,-0.008,-0.008,-0.0081,-0.0081,-0.0531,-0.0553,-0.0531,-0.0564,-0.0507,-0.0488,-0.0364,-0.03,-0.0208,-0.0156,-0.0139,-0.0124,-0.0089,-0.0087,-0.0086,-0.0085,-0.0085,-0.0084,-0.0084,-0.0586,-0.0596,-0.0616,-0.0651,-0.0647,-0.0575,-0.054,-0.043,-0.0298,-0.0284,-0.0239,-0.0179,-0.0188,-0.0256,-0.0257,-0.0257,-0.0257,-0.0257,-0.0257,-0.0631,-0.0649,-0.0712,-0.0738,-0.0766,-0.0753,-0.0636,-0.0562,-0.0422,-0.0343,-0.0299,-0.0195,-0.019,-0.0195,-0.026,-0.026,-0.0259,-0.0259,-0.0259,-0.0691,-0.0704,-0.0798,-0.0848,-0.0901,-0.0879,-0.0791,-0.0612,-0.053,-0.0434,-0.0345,-0.034,-0.0302,-0.0293,-0.0301,-0.0399,-0.04,-0.0401,0,-0.0726,-0.0741,-0.0868,-0.0952,-0.0995,-0.0945,-0.0843,-0.0725,-0.0543,-0.0541,-0.0525,-0.0432,-0.0425,-0.039,-0.0382,-0.0397,0,0,0,-0.0763,-0.0799,-0.0892,-0.0978,-0.1028,-0.0896,-0.0806,-0.0737,-0.0586,-0.0493,-0.0417,-0.0412,-0.0371,-0.0268,-0.0197,-0.019,-0.0195,0,0]}]]